Temperature
18 18 17 17 17 17 16 16 16 16 16 16 16 16 16 16 16 16 15 15 15 15 15 15 15 15 15 15 15 15 15 15 15 15 15 14 14 14 14 14 14 14 14
18 17 17 17 16 16 16 16 16 16 16 16 15 15 15 15 15 15 15 15 15 15 15 15 14 15 14 14 14 14 14 14 14 14 14 14 14 13 14 14 14 14 14
17 17 17 16 16 16 16 15 15 15 15 15 15 15 15 15 15 15 15 14 14 14 14 14 14 14 14 14 14 14 14 14 14 14 14 14 14 14 13 13 14 14 14
17 17 16 16 16 16 15 15 15 15 15 15 14 14 14 14 14 14 14 14 14 14 14 14 14 14 14 14 14 13 14 14 14 14 14 14 14 13 13 14 14 14 14
17 16 16 16 16 15 15 15 15 15 14 14 14 14 14 14 14 14 14 14 14 13 13 13 14 14 14 13 13 13 13 13 14 14 14 14 13 13 13 13 13 13 13
16 16 16 16 16 15 15 15 15 15 14 14 14 14 14 14 14 14 14 13 13 13 13 13 13 13 13 13 13 13 13 13 13 13 13 13 13 13 13 13 13 13 13
16 16 16 16 15 15 15 15 15 14 14 14 14 14 13 14 14 14 14 13 13 13 13 13 13 13 13 13 13 13 13 12 12 12 12 12 12 12 12 12 12 12 12
16 16 16 16 15 15 15 15 14 14 14 14 14 13 13 13 14 13 13 13 13 12 12 12 12 12 12 12 12 12 12 12 12 12 12 12 12 12 12 12 12 12 12
16 16 16 15 15 15 15 14 14 14 14 14 13 13 13 13 13 13 13 12 12 12 12 12 12 12 12 12 12 11 11 12 12 12 12 12 12 12 11 11 12 12 12
16 16 15 15 15 15 14 14 14 14 13 13 13 13 12 12 12 12 12 12 12 12 12 12 12 11 11 11 11 11 11 11 11 11 11 11 11 11 11 11 11 12 12
16 16 15 15 15 14 14 14 14 13 13 13 12 12 12 12 12 12 12 12 11 12 12 11 11 11 11 11 11 10 10 11 11 11 11 11 11 11 11 11 11 11 11
15 15 15 15 14 14 14 13 13 13 13 13 12 12 12 12 12 12 12 11 11 11 11 11 11 11 11 11 10 10 10 10 10 11 11 11 11 11 11 10 10 10 10
15 15 15 14 14 14 13 13 13 13 13 13 13 12 12 12 11 11 11 11 11 11 10 10 10 10 10 10 10 10 10 10 10 10 10 10 10 10 10 10 10 10 10
15 15 14 14 14 13 13 13 13 13 13 13 12 12 12 12 11 11 11 11 10 10 10 10 10 10 10 10 10 9 9 9 9 9 10 10 10 10 10 10 10 10 10
15 15 14 14 14 13 13 13 13 13 12 12 12 12 12 11 11 11 11 10 10 10 10 10 10 10 10 10 9 9 9 9 9 9 9 9 9 10 10 10 10 10 10
14 14 14 14 13 13 13 13 13 12 12 12 12 12 11 11 11 11 10 10 10 10 10 10 10 10 10 10 9 9 9 9 9 9 9 9 9 9 9 10 10 10 10
14 14 14 14 14 13 13 13 12 12 12 12 12 11 11 11 11 11 10 10 10 10 10 10 10 10 10 9 9 9 9 9 8 9 9 8 9 9 9 9 10 10 10
14 14 14 14 13 13 13 13 13 12 12 12 12 11 11 11 10 10 10 10 10 10 10 9 9 9 9 9 9 9 9 9 8 8 8 8 8 8 9 9 9 9 9
14 14 14 13 13 13 13 13 13 12 12 12 12 11 11 10 10 10 10 10 10 10 10 9 9 9 9 9 9 8 8 8 8 8 8 8 8 8 8 9 9 9 9
14 14 13 13 13 13 13 13 12 12 12 12 12 11 11 10 10 10 10 9 9 9 9 9 9 9 9 9 8 8 8 8 8 8 8 8 8 8 8 8 8 8 8
14 13 13 13 13 13 12 12 12 12 12 12 11 11 10 10 10 10 10 9 9 9 9 9 9 9 8 8 8 8 8 8 7 8 7 7 7 8 8 8 8 8 8
13 13 13 13 13 12 12 12 12 12 12 11 11 11 10 10 10 10 10 9 9 9 8 8 8 8 8 8 8 8 7 7 7 7 7 7 7 7 7 7 7 7 7
13 13 13 12 12 12 12 12 12 11 11 11 11 11 10 10 10 10 9 9 9 8 8 8 8 8 7 7 7 7 7 7 7 6 6 6 7 7 7 7 7 7 7
13 13 13 12 12 12 12 12 12 11 11 11 11 11 10 10 10 9 9 9 8 8 8 8 7 7 7 7 7 7 7 6 6 6 6 6 6 6 6 6 6 7 7
12 12 12 12 12 12 12 11 11 11 11 11 10 10 10 9 9 9 9 8 8 8 7 7 7 7 7 6 6 6 6 6 6 6 6 6 6 6 6 6 6 6 6
12 12 12 12 12 12 11 11 11 11 11 10 10 10 9 9 9 9 8 8 8 8 7 7 7 7 6 6 6 6 6 6 6 6 6 5 5 5 5 5 6 6 6
Wind_Speed
6 5 4 3 3 2 1 1 0 0 1 1 1 2 2 2 3 3 3 3 3 4 3 3 3 3 3 2 2 2 3 3 3 3 2 1 1 3 2 2 2 3 2
6 5 4 3 3 2 2 1 1 1 1 1 1 1 2 2 3 3 4 4 4 4 4 3 3 2 2 3 2 2 2 2 3 3 3 2 2 3 2 3 3 2 2
6 5 5 4 3 2 1 1 1 1 0 1 1 1 2 2 3 3 3 4 4 4 4 4 3 3 3 2 3 2 2 2 2 3 3 2 3 2 3 3 3 3 4
6 5 5 3 2 2 1 1 1 1 0 1 1 1 2 2 3 4 3 3 3 4 4 4 4 3 2 3 3 3 2 3 2 3 3 3 2 2 3 4 3 3 3
6 5 4 3 3 2 1 1 1 1 1 1 1 2 2 1 3 4 4 3 3 3 3 3 3 3 4 4 4 3 3 3 3 3 3 3 2 2 3 3 3 3 2
6 6 5 4 3 2 1 1 1 1 1 1 1 2 2 3 6 7 6 4 4 3 3 3 3 2 2 2 3 4 4 4 4 4 3 3 3 3 3 3 3 3 3
6 6 5 5 4 3 2 2 1 1 1 1 1 1 2 4 6 6 7 4 3 3 3 3 3 3 3 3 2 3 3 4 5 5 4 4 3 3 4 4 3 4 4
6 5 5 4 4 3 3 2 1 1 1 1 1 1 1 3 6 6 7 4 2 3 3 3 4 4 4 5 4 4 4 3 3 4 4 4 3 3 4 5 5 5 5
6 5 5 5 4 3 3 2 1 1 1 1 1 1 2 3 5 6 8 3 2 3 3 4 4 4 7 7 4 4 4 3 2 1 3 2 2 2 4 4 4 5 4
5 5 5 5 4 4 3 2 2 1 1 1 1 1 1 2 4 6 8 3 3 3 2 2 5 5 6 6 4 4 4 4 4 3 2 3 4 4 5 5 5 5 4
5 5 5 5 5 4 3 3 2 2 1 0 1 1 1 2 3 4 6 5 4 4 3 3 3 5 5 6 6 4 5 5 5 4 3 3 3 3 3 3 4 5 5
6 6 5 5 4 4 4 3 2 2 2 2 1 1 0 1 2 2 2 4 7 4 4 3 3 4 4 4 4 4 5 6 4 3 3 3 3 3 2 3 4 5 5
6 6 5 5 4 4 4 3 3 2 1 1 1 1 1 1 1 2 1 2 4 3 3 3 2 3 3 2 1 3 4 3 3 4 4 3 3 3 3 3 3 4 5
6 6 5 5 4 4 3 2 2 1 1 1 1 2 1 1 2 2 2 2 2 3 3 1 3 4 2 3 3 3 3 3 4 4 4 4 3 3 3 3 3 3 3
6 5 5 5 4 4 3 1 1 1 0 2 2 2 2 2 2 4 4 4 4 4 5 3 3 2 2 3 3 3 3 3 3 3 4 4 3 3 3 3 3 3 3
5 5 4 4 4 3 3 3 3 0 2 1 2 3 2 1 1 2 3 5 6 6 5 3 3 3 3 3 3 3 3 3 4 4 4 4 4 4 4 4 4 4 3
4 4 4 4 4 3 3 3 3 4 5 5 4 3 3 3 2 3 4 5 5 5 3 3 4 4 4 4 4 4 4 3 4 4 4 3 4 4 4 4 4 3 3
5 5 4 4 3 3 3 3 2 2 2 2 4 6 5 4 4 4 5 4 2 2 3 3 4 3 4 4 4 4 4 4 3 4 4 4 4 4 4 4 4 4 4
4 4 4 3 3 3 3 3 3 2 2 2 1 3 6 6 6 5 5 3 3 2 3 3 3 4 4 4 4 4 4 4 4 4 4 4 4 4 4 5 5 3 4
4 4 3 3 3 3 3 3 2 2 2 2 2 2 1 2 2 1 2 3 3 3 3 3 3 4 4 3 4 4 4 3 3 4 4 4 4 4 4 5 5 4 3
4 5 6 4 3 3 3 3 3 3 3 2 2 1 1 3 2 2 3 3 3 4 3 4 4 4 3 3 3 4 4 4 4 4 4 4 4 4 4 4 4 4 4
4 4 5 4 3 3 3 3 3 3 2 2 1 1 3 3 2 2 3 3 3 4 4 4 4 4 3 3 4 4 4 4 4 4 4 4 4 4 4 4 4 4 3
4 4 4 4 3 3 4 4 3 3 2 2 2 1 1 2 3 3 3 3 3 3 3 3 3 3 3 3 3 3 3 3 4 4 4 4 4 4 4 3 3 4 3
4 5 5 4 4 4 4 3 3 3 3 2 2 3 2 2 3 3 3 3 3 3 3 3 3 3 4 4 3 3 3 4 5 4 5 4 4 3 3 3 3 4 3
4 4 4 4 4 4 4 3 3 3 3 3 3 3 2 2 3 3 3 3 3 2 3 3 3 2 3 3 3 3 4 4 4 5 3 3 3 3 3 3 3 3 3
3 4 4 4 4 4 4 3 3 3 3 3 3 3 3 3 3 3 3 2 3 2 3 2 3 3 3 2 2 3 2 2 3 5 4 3 3 3 3 2 3 3 2
Wind_Direction
176 178 179 178 176 174 178 182 125 31 5 352 356 350 341 344 343 336 331 334 325 316 306 306 305 310 309 297 289 279 276 269 254 263 258 258 267 281 285 287 277 270 203
174 174 172 170 174 172 158 152 131 77 24 17 4 352 338 355 346 337 330 331 323 322 322 326 321 317 305 300 300 289 282 269 258 265 272 267 254 256 267 279 283 285 295
171 173 167 164 160 152 141 146 123 98 48 30 7 355 350 354 354 348 337 331 328 326 327 324 320 322 314 318 299 297 287 272 260 255 263 279 271 272 267 263 270 283 280
166 166 156 155 147 134 124 116 93 78 57 51 20 355 350 359 355 341 332 328 328 329 329 329 328 330 326 312 291 289 290 288 270 258 267 270 273 271 268 268 264 256 278
161 160 151 148 133 122 126 124 116 93 48 42 17 356 347 0 12 352 328 326 330 328 336 345 352 1 357 329 314 308 290 275 274 271 273 275 282 288 284 285 285 279 260
161 157 151 145 136 140 150 154 145 124 41 21 11 1 352 21 28 4 334 328 332 335 339 336 327 359 335 303 314 317 307 287 289 286 284 293 303 301 305 294 294 286 282
161 154 149 151 152 156 163 159 169 156 100 43 16 4 15 37 30 2 342 329 336 345 345 338 332 2 345 335 318 267 270 272 280 286 292 296 294 297 303 291 298 300 302
158 154 154 158 161 158 158 163 173 162 113 66 43 18 10 40 29 359 334 310 342 351 353 354 354 359 2 346 324 322 311 298 276 267 280 281 284 294 285 279 280 267 259
163 162 163 164 163 159 161 165 164 155 129 110 92 45 14 34 28 359 331 319 351 355 357 14 8 8 15 349 322 316 315 309 304 302 295 279 318 300 293 280 273 269 273
166 163 161 160 162 159 152 154 148 161 159 187 114 81 24 17 43 10 336 324 348 346 4 28 47 26 12 348 329 323 316 319 321 312 260 233 231 227 230 259 277 276 280
155 154 157 157 159 151 147 151 156 163 136 126 128 143 82 35 69 38 353 340 339 331 345 355 35 41 6 342 326 327 332 319 303 298 289 279 259 243 237 240 266 281 286
151 153 154 158 162 148 153 157 164 177 177 184 202 246 201 113 50 50 7 346 335 334 335 349 24 16 342 328 331 348 330 309 302 302 297 299 301 294 277 268 264 271 278
154 155 157 158 158 157 161 163 177 187 219 238 262 295 325 5 104 120 236 301 316 320 338 9 349 306 295 309 323 308 301 309 316 310 309 309 309 311 297 276 265 259 260
155 158 161 165 167 159 169 175 187 187 220 256 288 301 306 319 347 343 312 294 264 287 314 296 225 235 270 323 314 308 313 326 320 315 313 310 306 299 286 280 272 267 274
156 161 168 169 163 159 158 151 189 144 349 280 287 294 303 307 359 348 316 317 315 319 308 294 306 317 311 316 321 329 328 327 322 316 310 308 305 302 302 299 288 284 284
163 170 175 174 168 176 170 160 123 136 140 197 305 308 316 358 347 312 304 311 310 301 295 295 302 307 312 320 324 321 323 330 325 313 310 312 309 307 307 304 293 286 290
177 179 180 178 174 182 185 198 190 181 188 200 216 242 269 295 281 274 278 277 272 266 274 298 307 316 319 319 319 319 323 330 323 318 318 313 309 307 304 302 301 295 290
186 177 190 185 186 191 195 211 225 234 221 212 194 191 210 224 234 256 262 257 264 254 292 301 307 312 312 312 313 315 316 316 316 312 313 313 305 303 306 305 301 302 301
185 185 187 185 193 200 206 219 230 238 259 270 265 174 192 209 211 225 237 272 301 297 293 300 308 310 309 309 311 309 310 310 315 310 310 308 304 299 299 298 300 310 304
180 168 192 195 200 202 214 227 232 242 252 265 274 290 207 235 259 253 257 291 299 303 306 309 312 311 308 309 305 304 303 308 313 309 315 311 307 304 302 302 305 302 301
182 176 183 203 205 208 221 228 237 250 258 267 276 34 313 269 282 290 293 290 294 302 304 308 309 306 307 305 308 311 312 312 318 319 318 316 314 310 306 306 306 300 300
190 188 194 204 209 215 229 234 240 250 262 276 292 174 196 260 280 282 284 286 289 294 298 302 305 312 318 313 306 306 308 314 321 322 319 314 309 308 307 306 309 308 305
199 199 204 208 215 205 225 235 238 243 252 263 278 290 260 274 282 285 287 292 295 294 301 312 316 323 330 327 322 317 317 325 325 321 313 307 307 310 312 312 308 306 307
204 210 213 213 215 225 233 240 250 257 258 260 272 277 277 274 283 294 298 305 308 299 298 302 306 318 331 331 328 330 351 345 328 314 306 297 297 301 308 312 307 308 311
214 216 221 224 223 229 238 242 250 260 265 269 273 280 288 291 294 301 301 303 305 306 308 307 307 315 328 323 327 352 27 8 342 325 302 293 295 300 304 308 310 310 306
219 225 228 227 229 233 237 239 245 254 261 266 272 279 286 287 293 305 311 315 311 307 303 302 311 318 317 307 342 22 41 11 331 314 298 279 281 286 294 286 298 304 307
Height
1505 1506 1507 1507 1508 1508 1508 1508 1508 1507 1507 1506 1505 1505 1504 1503 1502 1501 1500 1499 1498 1497 1496 1495 1494 1493 1493 1493 1493 1492 1492 1492 1491 1491 1491 1491 1490 1490 1489 1489 1488 1487 1487
1504 1505 1506 1506 1507 1507 1507 1507 1507 1506 1506 1505 1505 1504 1503 1502 1501 1500 1499 1498 1497 1496 1495 1494 1493 1492 1491 1491 1490 1490 1490 1489 1490 1489 1489 1489 1488 1487 1487 1486 1486 1486 1485
1503 1504 1505 1505 1506 1506 1506 1506 1506 1505 1505 1504 1504 1503 1502 1501 1500 1499 1498 1496 1495 1494 1493 1492 1491 1491 1489 1489 1488 1488 1488 1488 1487 1487 1487 1486 1486 1485 1485 1484 1484 1483 1483
1502 1503 1504 1504 1505 1505 1505 1506 1505 1505 1505 1504 1503 1502 1501 1500 1499 1498 1497 1495 1494 1493 1492 1491 1490 1489 1488 1487 1487 1486 1486 1486 1485 1485 1485 1484 1484 1483 1482 1482 1481 1481 1480
1501 1502 1502 1503 1504 1504 1504 1505 1505 1504 1504 1503 1502 1501 1501 1500 1498 1497 1496 1495 1493 1492 1491 1489 1488 1487 1486 1485 1485 1485 1484 1484 1484 1484 1483 1482 1482 1481 1481 1480 1479 1478 1478
1499 1500 1501 1501 1502 1503 1503 1504 1503 1503 1502 1502 1501 1500 1500 1499 1497 1495 1494 1493 1492 1490 1489 1488 1487 1485 1484 1483 1483 1482 1482 1482 1482 1482 1481 1480 1479 1479 1478 1478 1477 1477 1476
1497 1498 1499 1500 1501 1502 1502 1502 1502 1502 1501 1501 1500 1499 1498 1497 1495 1494 1492 1491 1491 1489 1487 1486 1486 1484 1482 1481 1481 1480 1480 1480 1479 1479 1478 1477 1477 1476 1476 1475 1475 1474 1474
1496 1497 1498 1499 1500 1501 1501 1501 1501 1501 1500 1499 1499 1498 1497 1496 1494 1493 1491 1490 1489 1487 1486 1485 1484 1482 1481 1479 1479 1478 1478 1477 1477 1476 1475 1475 1474 1474 1473 1473 1473 1472 1471
1494 1495 1496 1497 1498 1499 1499 1499 1499 1499 1499 1498 1497 1497 1496 1494 1493 1491 1490 1489 1488 1487 1485 1484 1482 1481 1479 1478 1477 1476 1475 1475 1474 1473 1472 1472 1471 1470 1470 1470 1471 1471 1470
1493 1494 1495 1495 1496 1497 1498 1498 1498 1498 1498 1497 1496 1495 1494 1493 1492 1490 1489 1489 1487 1486 1485 1483 1481 1479 1478 1476 1475 1474 1473 1472 1472 1471 1470 1469 1468 1468 1467 1468 1468 1469 1468
1491 1492 1493 1494 1495 1495 1496 1496 1496 1497 1496 1496 1495 1494 1493 1492 1491 1489 1488 1487 1487 1485 1484 1483 1480 1478 1477 1475 1474 1473 1471 1470 1469 1469 1468 1467 1467 1466 1466 1466 1466 1466 1466
1490 1491 1492 1493 1494 1494 1494 1495 1495 1495 1495 1495 1494 1494 1493 1492 1490 1488 1487 1486 1485 1484 1483 1482 1479 1477 1475 1474 1472 1471 1469 1468 1467 1467 1466 1465 1465 1464 1464 1463 1463 1463 1462
1488 1489 1490 1492 1492 1493 1493 1494 1494 1494 1495 1495 1494 1493 1493 1491 1489 1487 1486 1484 1483 1482 1481 1479 1478 1476 1474 1473 1471 1469 1468 1467 1466 1465 1464 1464 1463 1462 1461 1461 1460 1460 1460
1486 1488 1489 1490 1491 1492 1492 1493 1494 1494 1493 1493 1492 1492 1491 1490 1488 1486 1485 1483 1482 1481 1480 1478 1476 1474 1473 1471 1470 1468 1467 1466 1465 1464 1463 1462 1461 1460 1459 1459 1458 1458 1458
1485 1487 1488 1489 1490 1490 1491 1491 1492 1491 1491 1491 1491 1490 1489 1488 1486 1484 1483 1482 1480 1479 1477 1477 1476 1474 1473 1471 1469 1468 1467 1465 1464 1463 1461 1460 1459 1458 1458 1457 1457 1456 1456
1485 1486 1488 1489 1489 1490 1490 1490 1490 1490 1489 1489 1488 1488 1487 1486 1484 1482 1481 1480 1478 1477 1476 1475 1474 1473 1471 1470 1469 1467 1466 1464 1463 1462 1460 1459 1458 1457 1456 1456 1455 1455 1454
1484 1485 1486 1487 1488 1488 1489 1489 1489 1489 1488 1487 1486 1486 1485 1483 1482 1480 1479 1478 1477 1475 1475 1474 1473 1472 1470 1469 1467 1466 1465 1463 1462 1460 1459 1458 1457 1456 1455 1454 1453 1453 1452
1483 1484 1485 1485 1486 1487 1487 1487 1487 1487 1487 1486 1485 1483 1483 1482 1480 1479 1477 1476 1476 1474 1474 1473 1472 1470 1469 1467 1466 1465 1463 1462 1461 1459 1458 1457 1456 1454 1453 1452 1452 1451 1450
1481 1482 1483 1484 1484 1485 1485 1486 1486 1485 1485 1484 1483 1482 1481 1480 1479 1477 1476 1476 1475 1474 1473 1472 1470 1469 1468 1466 1465 1463 1462 1460 1459 1458 1457 1455 1454 1453 1452 1451 1450 1449 1448
1478 1479 1480 1482 1483 1483 1483 1484 1484 1483 1483 1482 1481 1480 1479 1478 1477 1476 1475 1474 1473 1472 1471 1470 1469 1468 1466 1465 1463 1462 1460 1459 1458 1457 1455 1454 1453 1452 1450 1449 1448 1447 1447
1476 1477 1478 1479 1480 1481 1481 1481 1481 1481 1480 1480 1479 1478 1477 1476 1476 1474 1473 1472 1471 1470 1469 1469 1467 1466 1465 1463 1462 1460 1459 1458 1456 1455 1454 1452 1451 1450 1449 1448 1446 1446 1445
1474 1475 1476 1477 1478 1479 1479 1479 1479 1479 1478 1478 1477 1476 1475 1475 1474 1472 1471 1470 1469 1469 1468 1467 1465 1464 1462 1461 1459 1458 1457 1455 1454 1453 1451 1450 1449 1448 1447 1446 1445 1444 1443
1472 1473 1475 1476 1476 1476 1477 1477 1477 1477 1476 1476 1475 1474 1473 1473 1472 1471 1469 1468 1467 1466 1465 1464 1463 1462 1460 1458 1457 1456 1454 1453 1451 1450 1449 1448 1447 1446 1445 1444 1443 1443 1442
1470 1472 1473 1473 1474 1475 1475 1475 1475 1475 1474 1474 1473 1472 1471 1470 1470 1469 1467 1466 1465 1463 1462 1461 1460 1459 1457 1456 1455 1453 1452 1450 1449 1448 1446 1445 1445 1444 1443 1443 1442 1442 1441
1469 1470 1470 1471 1472 1472 1472 1472 1472 1472 1472 1471 1470 1470 1469 1468 1467 1466 1465 1463 1462 1461 1459 1458 1457 1456 1454 1453 1451 1450 1448 1447 1446 1445 1444 1444 1443 1442 1442 1442 1441 1441 1441
1467 1467 1468 1469 1469 1470 1469 1469 1469 1469 1469 1468 1468 1467 1466 1465 1465 1464 1462 1461 1459 1458 1456 1455 1454 1452 1451 1450 1448 1447 1445 1444 1444 1443 1442 1442 1441 1441 1441 1441 1440 1440 1440